Location: Grand Rapids
(42.9630°N, 85.6680°W)
Time: 01:49:09
(UTC-04:00)

S-56A Canister/Altair - Pass Details

Date: 01 June 2024
Orbit: 637 x 2489 km, 38.9° (Epoch: 21 June)

Event Time Altitude Azimuth Distance (km) Brightness Sun altitude
Rises 07:28:25 0° 265° (W) 6,149 11.5 12.8°
Reaches altitude 10° 07:32:35 10° 264° (W) 5,072 11.1 13.5°
Maximum altitude 07:46:53 74° 184° (S) 2,092 9.9 16.0°
Drops below altitude 10° 07:57:05 10° 102° (ESE) 3,739 12.4 17.8°
Sets 07:59:42 0° 100° (E) 4,500 12.7 18.3°
